Boonville, MO

8:28 AM CDT on March 27, 2017 (GMT -0500)
Viertel Memorial

Weather History for KVER - October, 2012

Change the Weather History Date:

Friday, October 5, 2012

  Actual Average Record
Temperature  
Mean Temperature 44 °F -  
Max Temperature 77 °F 72 °F 98 °F (2013)
Min Temperature 38 °F 47 °F 34 °F (1980)
Degree Days  
Heating Degree Days 22    
Moisture  
Dew Point 40 °F    
Average Humidity 84    
Maximum Humidity 100    
Minimum Humidity 58    
Precipitation  
Precipitation 0.69 in - - ()
Sea Level Pressure  
Sea Level Pressure 30.24 in    
Wind  
Wind Speed 5 mph (North)    
Max Wind Speed 12 mph    
Max Gust Speed 18 mph    
Visibility 10 miles    
Events Rain , Thunderstorm    
Averages and records for this station are not official NWS values.
T = Trace of Precipitation, MM = Missing Value Source: NWS Daily Summary

Daily Weather History Graph

Daily Weather History Graph

Search for Another Location

Airport or City:

Trip Planner

Search our weather history database for the weather conditions in past years. The results will help you decide how hot, cold, wet, or windy it might be!

Date:

Astronomy

Oct. 05, 2012 Rise Set
Actual Time 7:10 AM CDT 6:46 PM CDT
Civil Twilight 6:44 AM CDT 7:12 PM CDT
Nautical Twilight 6:13 AM CDT 7:43 PM CDT
Astronomical Twilight 5:42 AM CDT 8:14 PM CDT
Moon 10:12 PM CDT (10/5) 12:16 PM CDT (10/5)
Length of Visible Light 12h 28m
Length of Day
11h 35m
Waning Gibbous, 74% of the Moon is Illuminated
Oct 5
Waning Gibbous
Oct 8
Last Quarter
Oct 15
New
Oct 21
First Quarter
Oct 29
Full

Hourly Weather History & Observations

Time (CDT) Temp. Windchill Dew Point Humidity Pressure Visibility Wind Dir Wind Speed Gust Speed Precip Events Conditions
12:15 AM 47.5 °F - 46.9 °F 98% 30.22 in 7.0 mi North 4.6 mph - 0.01 in Rain , Thunderstorm Thunderstorms and Rain
12:35 AM 47.5 °F - 46.9 °F 98% 30.25 in 5.0 mi WNW 5.8 mph - 0.01 in Rain , Thunderstorm Heavy Thunderstorms and Rain
12:55 AM 47.3 °F - 46.8 °F 98% 30.23 in 7.0 mi North 3.5 mph - 0.01 in Rain , Thunderstorm Light Thunderstorms and Rain
1:15 AM 47.3 °F - 46.9 °F 99% 30.25 in 10.0 mi NW 5.8 mph - N/A Rain , Thunderstorm Light Thunderstorms and Rain
1:55 AM 47.3 °F - 46.8 °F 98% 30.25 in 10.0 mi Calm Calm - N/A Rain , Thunderstorm Light Thunderstorms and Rain
2:15 AM 47.5 °F - 46.9 °F 98% 30.26 in 7.0 mi Calm Calm - N/A Rain , Thunderstorm Thunderstorms and Rain
2:35 AM 47.1 °F - 46.6 °F 98% 30.26 in 7.0 mi Calm Calm - 0.01 in Rain , Thunderstorm Thunderstorms and Rain
2:55 AM 46.8 °F - 46.4 °F 99% 30.24 in 10.0 mi Calm Calm - 0.01 in Rain , Thunderstorm Light Thunderstorms and Rain
3:15 AM 46.9 °F - 46.6 °F 99% 30.22 in 10.0 mi NE 3.5 mph - N/A Rain , Thunderstorm Light Thunderstorms and Rain
3:35 AM 46.9 °F - 46.6 °F 99% 30.22 in 7.0 mi NE 6.9 mph - N/A Rain , Thunderstorm Thunderstorms and Rain
3:55 AM 46.4 °F 44.3 °F 46.4 °F 100% 30.23 in 7.0 mi NNE 4.6 mph - N/A Rain Light Rain
4:15 AM 46.8 °F - 46.2 °F 98% 30.21 in 10.0 mi ENE 5.8 mph - 0.01 in Rain , Thunderstorm Light Thunderstorms and Rain
4:35 AM 46.8 °F - 46.0 °F 97% 30.23 in 10.0 mi NNE 8.1 mph - 0.01 in Rain , Thunderstorm Light Thunderstorms and Rain
4:55 AM 46.8 °F - 45.7 °F 96% 30.25 in 4.0 mi NW 4.6 mph - 0.01 in Rain , Thunderstorm Heavy Thunderstorms and Rain
5:15 AM 46.6 °F - 45.7 °F 97% 30.25 in 7.0 mi NNE 5.8 mph - N/A Rain , Thunderstorm Rain
5:35 AM 46.4 °F 43.5 °F 45.3 °F 96% 30.25 in 10.0 mi NNE 5.8 mph - N/A Rain , Thunderstorm Light Thunderstorms and Rain
5:55 AM 46.4 °F 45.2 °F 45.1 °F 95% 30.26 in 10.0 mi NE 3.5 mph - 0.01 in   Overcast
6:15 AM 46.4 °F 45.2 °F 45.5 °F 97% 30.25 in 10.0 mi NE 3.5 mph - N/A Rain , Thunderstorm Light Thunderstorms and Rain
6:35 AM 46.4 °F - 45.3 °F 96% 30.25 in 10.0 mi Calm Calm - N/A Thunderstorm Overcast
6:55 AM 46.4 °F 43.5 °F 45.0 °F 95% 30.23 in 10.0 mi NE 5.8 mph - N/A Thunderstorm Overcast
7:15 AM 46.2 °F 44.1 °F 44.8 °F 95% 30.24 in 10.0 mi NE 4.6 mph - 0.01 in Thunderstorm Overcast
7:35 AM 46.0 °F 44.8 °F 44.6 °F 95% 30.24 in 10.0 mi North 3.5 mph - 0.01 in   Overcast
7:55 AM 46.0 °F - 44.8 °F 95% 30.25 in 10.0 mi Calm Calm - 0.02 in   Drizzle
8:15 AM 46.0 °F 44.8 °F 45.1 °F 97% 30.25 in 7.0 mi North 3.5 mph - N/A Rain Rain
8:35 AM 46.0 °F 41.9 °F 45.5 °F 98% 30.25 in 10.0 mi NNE 8.1 mph - N/A   Light Drizzle
8:55 AM 46.2 °F - 44.1 °F 92% 30.26 in 10.0 mi Calm Calm - 0.01 in   Overcast
9:15 AM 46.0 °F 41.9 °F 43.7 °F 92% 30.24 in 10.0 mi North 8.1 mph - N/A   Overcast
9:35 AM 45.9 °F 41.7 °F 43.5 °F 92% 30.24 in 10.0 mi North 8.1 mph - N/A   Overcast
9:55 AM 45.9 °F 42.3 °F 43.3 °F 91% 30.24 in 10.0 mi NNE 6.9 mph - N/A Thunderstorm Overcast
10:15 AM 46.0 °F 41.9 °F 43.5 °F 91% 30.24 in 10.0 mi NNE 8.1 mph - N/A Thunderstorm Overcast
10:35 AM 46.2 °F 43.3 °F 43.9 °F 92% 30.23 in 10.0 mi NNE 5.8 mph - N/A   Overcast
10:55 AM 46.4 °F 43.5 °F 43.9 °F 91% 30.23 in 10.0 mi North 5.8 mph - N/A   Overcast
11:15 AM 46.4 °F 43.5 °F 43.7 °F 90% 30.24 in 10.0 mi North 5.8 mph - N/A   Overcast
11:35 AM 46.4 °F 45.2 °F 42.6 °F 87% 30.24 in 10.0 mi NNE 3.5 mph - 0.01 in   Overcast
11:55 AM 46.6 °F - 42.3 °F 85% 30.24 in 10.0 mi North 5.8 mph - 0.02 in   Overcast
12:15 PM 46.6 °F - 41.4 °F 82% 30.24 in 10.0 mi North 6.9 mph - 0.01 in   Overcast
12:35 PM 46.8 °F - 39.9 °F 77% 30.24 in 10.0 mi North 4.6 mph - 0.02 in   Overcast
12:55 PM 46.9 °F - 39.9 °F 77% 30.23 in 10.0 mi NNE 5.8 mph - 0.03 in   Overcast
1:15 PM 46.8 °F - 38.1 °F 72% 30.22 in 10.0 mi North 9.2 mph - N/A   Overcast
1:35 PM 46.6 °F - 38.5 °F 73% 30.23 in 10.0 mi North 9.2 mph - 0.01 in   Light Drizzle
1:55 PM 46.4 °F 42.9 °F 37.6 °F 71% 30.23 in 10.0 mi North 6.9 mph - 0.01 in   Overcast
2:15 PM 46.6 °F - 37.6 °F 71% 30.23 in 10.0 mi NNW 8.1 mph - 0.01 in   Overcast
2:35 PM 46.6 °F - 38.3 °F 73% 30.24 in 10.0 mi NNW 6.9 mph - 0.01 in   Overcast
3:15 PM 47.3 °F - 37.8 °F 69% 30.24 in 10.0 mi NNW 8.1 mph - N/A   Overcast
3:55 PM 47.5 °F - 35.2 °F 63% 30.24 in 10.0 mi NNW 8.1 mph 18.4 mph 0.04 in   Overcast
4:15 PM 47.5 °F - 34.7 °F 61% 30.23 in 10.0 mi North 11.5 mph 17.3 mph 0.02 in   Overcast
4:35 PM 47.1 °F - 34.0 °F 60% 30.22 in 10.0 mi North 5.8 mph - 0.04 in   Overcast
4:55 PM 47.1 °F - 35.1 °F 63% 30.20 in 10.0 mi North 5.8 mph - 0.06 in   Overcast
5:15 PM 47.3 °F - 36.0 °F 65% 30.21 in 10.0 mi North 5.8 mph - 0.02 in   Overcast
5:35 PM 48.2 °F - 36.0 °F 63% 30.23 in 10.0 mi NNW 6.9 mph - 0.04 in   Scattered Clouds
5:55 PM 48.2 °F - 34.7 °F 60% 30.23 in 10.0 mi North 10.4 mph 16.1 mph 0.05 in   Scattered Clouds
6:15 PM 47.5 °F - 33.4 °F 58% 30.23 in 10.0 mi North 6.9 mph - 0.02 in   Scattered Clouds
6:35 PM 46.0 °F 43.9 °F 33.8 °F 62% 30.23 in 10.0 mi North 4.6 mph - 0.04 in   Clear
6:55 PM 44.6 °F 43.1 °F 33.4 °F 65% 30.23 in 10.0 mi NNW 3.5 mph - 0.06 in   Clear
7:15 PM 43.3 °F 41.7 °F 34.2 °F 70% 30.24 in 10.0 mi NNW 3.5 mph - 0.03 in   Clear
7:35 PM 43.3 °F 40.7 °F 33.6 °F 69% 30.25 in 10.0 mi NNW 4.6 mph - 0.06 in   Clear
7:55 PM 42.8 °F 41.1 °F 33.6 °F 70% 30.25 in 10.0 mi NNW 3.5 mph - 0.08 in   Clear
8:15 PM 42.4 °F - 34.2 °F 72% 30.25 in 10.0 mi Calm Calm - 0.03 in   Clear
8:35 PM 41.9 °F 40.0 °F 34.3 °F 75% 30.26 in 10.0 mi NW 3.5 mph - 0.05 in   Clear
8:55 PM 41.5 °F - 34.3 °F 76% 30.26 in 10.0 mi Calm Calm - 0.08 in   Clear
9:15 PM 41.0 °F 39.0 °F 34.2 °F 77% 30.26 in 10.0 mi NW 3.5 mph - 0.02 in   Clear
9:35 PM 40.6 °F 38.6 °F 34.3 °F 78% 30.27 in 10.0 mi NW 3.5 mph - 0.04 in   Clear
9:55 PM 40.3 °F 38.2 °F 34.7 °F 80% 30.27 in 10.0 mi NNW 3.5 mph - 0.07 in   Clear
10:15 PM 40.3 °F - 34.7 °F 80% 30.27 in 10.0 mi Calm Calm - 0.02 in   Clear
10:35 PM 39.7 °F 37.6 °F 34.5 °F 82% 30.26 in 10.0 mi NW 3.5 mph - 0.04 in   Clear
10:55 PM 39.6 °F 37.4 °F 34.0 °F 80% 30.26 in 10.0 mi WNW 3.5 mph - 0.06 in   Clear
11:15 PM 39.6 °F 37.4 °F 33.8 °F 80% 30.26 in 10.0 mi WNW 3.5 mph - 0.02 in   Clear
11:35 PM 39.4 °F - 33.8 °F 80% 30.27 in 10.0 mi Calm Calm - 0.03 in   Clear
11:55 PM 38.1 °F - 34.2 °F 86% 30.26 in 10.0 mi Calm Calm - 0.05 in   Clear